#timestamp,LO_Frequency,Hit,StdDev 
1510369215.0,286046993.0,N
1510369215.9,286046993.0,N
1510369235.8,286046989.6,Y
1510369255.6,286046992.7,P
1510369275.4,286046989.2,P
1510369295.3,286046986.8,P
1510369315.1,286046983.9,Y
1510369335.8,286046995.6,P
1510369355.7,286046996.1,N
1510369375.5,286046994.6,N
1510369395.4,286046989.1,Y
1510369415.2,286046995.3,P
1510369435.0,286046999.0,N
1510369435.9,286046999.0,N
1510369455.7,286046997.8,N
1510369475.6,286046997.7,N
1510369495.4,286046997.5,N
1510369515.2,286047000.8,N
1510369535.1,286047000.3,N
1510369536.0,286047000.3,N
1510369555.8,286047000.3,N
1510369575.6,286047002.5,N
1510369595.5,286046999.9,N
1510369615.3,286047000.2,N
1510369635.1,286047006.0,N
1510369655.9,286047003.0,N
1510369675.7,286047003.2,N
1510369695.5,286047005.3,N
1510369715.4,286047006.0,N
1510369735.2,286047006.4,N
1510369755.0,286047004.9,N
1510369755.9,286047004.9,N
1510369775.7,286047005.3,N
1510369795.6,286047005.7,N
1510369815.4,286047005.6,N
1510369835.2,286047007.1,N
1510369855.1,286047007.7,N
1510369856.0,286047007.7,N
1510369875.8,286047007.4,N
1510369895.6,286047009.0,N
1510369915.5,286047006.6,N
1510369935.3,286047006.2,N
1510369955.1,286047011.9,Y
1510369975.9,286047007.6,P
1510369995.7,286047008.7,P
1510370015.5,286047008.3,P
1510370035.4,286047009.0,Y
1510370055.2,286047000.3,P
1510370075.0,286047000.6,N
1510370075.9,286047000.6,N
1510370095.8,286047000.2,N
1510370115.6,286046999.7,N
1510370135.4,286047004.0,N
1510370155.3,286047001.3,N
1510370175.1,286047003.8,N
1510370176.0,286047003.8,N
1510370195.8,286047002.8,N
1510370215.7,286047001.7,N
1510370235.5,286047002.5,N
1510370255.3,286047003.9,N
1510370275.1,286047002.6,N
1510370295.9,286047003.9,N
1510370315.7,286047001.3,N
1510370335.5,286047001.7,N
1510370355.4,286046998.8,N
1510370375.2,286047003.6,N
1510370395.0,286047008.0,Y
1510370395.9,286047008.0,P
1510370415.8,286047006.2,N
1510370435.6,286047006.5,N
1510370455.4,286047008.1,Y
1510370475.3,286047004.6,P
1510370495.1,286047008.8,P
1510370515.8,286047008.7,P
1510370535.7,286047004.6,N
1510370555.5,286047006.6,Y
1510370575.3,286047000.2,P
1510370595.2,286047005.3,N
1510370615.0,286047004.6,N
1510370615.9,286047004.6,N
1510370635.7,286047003.5,N
1510370655.6,286047003.7,N
1510370675.4,286047001.1,N
1510370695.2,286046999.2,N
1510370715.1,286046999.1,N
1510370716.0,286046999.1,N
1510370735.8,286047004.3,N
1510370755.6,286046999.9,N
1510370775.5,286046998.0,N
1510370795.3,286046999.1,N
1510370815.1,286047000.6,N
1510370835.9,286047001.0,N
1510370855.7,286046997.9,N
1510370875.5,286046998.0,N
1510370895.3,286046997.3,N
1510370915.2,286046997.0,N
1510370935.0,286046995.1,N
1510370935.9,286046995.1,N
1510370955.7,286046998.3,N
1510370975.6,286047000.7,N
1510370995.4,286046998.1,N
1510371015.2,286047000.5,N
1510371035.1,286047001.7,N
1510371036.0,286047001.7,N
1510371055.8,286047004.2,N
1510371075.6,286047001.5,N
1510371095.5,286047000.1,N
1510371115.3,286047002.6,N
1510371135.1,286046995.4,N
1510371155.9,286046991.2,Y
1510371175.7,286046994.3,P
1510371195.5,286046990.8,P
1510371215.4,286046988.9,N
1510371235.2,286046989.1,N
1510371255.0,286046990.7,N
1510371255.9,286046990.7,N
1510371275.7,286046989.7,N
1510371295.6,286046989.8,N
1510371315.4,286046990.5,N
1510371335.2,286046993.0,N
1510371355.1,286046991.7,N
1510371356.0,286046991.7,N
1510371375.8,286046989.7,Y
1510371395.6,286046995.1,P
1510371415.5,286046995.3,N
1510371435.3,286046995.2,N
1510371455.1,286046996.1,N
1510371475.9,286046991.8,Y
1510371495.7,286046997.1,P
1510371515.5,286046996.5,N
1510371535.4,286046993.6,P
1510371555.2,286046990.9,Y
1510371575.0,286046997.6,P
1510371575.9,286046997.6,N
1510371595.8,286047000.9,N
1510371615.6,286046999.6,N
1510371635.4,286046993.5,Y
1510371655.3,286046995.4,P
1510371675.1,286046993.7,P
1510371695.8,286046996.9,N
1510371715.7,286046994.9,Y
1510371735.5,286047000.6,P
1510371755.3,286047005.9,N
1510371775.2,286047005.3,N
1510371795.0,286047008.3,N
1510371795.9,286047008.3,N
1510371815.7,286047005.0,N
1510371835.6,286047008.0,N
1510371855.4,286047007.6,N
1510371875.2,286047005.6,N
1510371895.1,286047004.4,N
1510371896.0,286047004.4,N
1510371915.8,286047003.9,N
1510371935.6,286047003.6,N
1510371955.5,286047000.9,N
1510371975.3,286047003.8,N
1510371995.1,286047003.0,N
1510372015.9,286047007.1,N
1510372035.7,286047012.3,Y
1510372055.5,286047008.0,P
1510372075.4,286047009.6,P
1510372095.2,286047015.2,P
1510372115.0,286047012.7,Y
1510372115.9,286047012.7,P
1510372135.8,286047006.8,P
1510372155.6,286047008.4,P
1510372175.4,286047009.0,Y
1510372195.3,286046999.9,P
1510372215.1,286047000.9,N
1510372216.0,286047000.9,N
1510372235.8,286046999.4,N
1510372255.7,286047001.9,N
1510372275.5,286047005.1,N
1510372295.3,286047007.3,N
1510372315.1,286047008.7,N
1510372335.9,286047007.4,N
1510372355.7,286047004.6,N
1510372375.5,286047004.9,N
1510372395.4,286047002.5,N
1510372415.2,286047001.6,N
1510372435.0,286047005.3,N
1510372435.9,286047005.3,N
1510372455.8,286047010.6,Y
1510372475.6,286047002.9,P
1510372495.4,286047005.6,P
1510372515.3,286047001.4,N
1510372535.1,286047000.9,N
1510372536.0,286047000.9,N
1510372555.8,286047000.3,N
1510372575.7,286047000.2,N
1510372595.5,286046999.1,N
1510372615.3,286046999.5,N
1510372635.2,286046997.3,N
1510372655.9,286046996.8,N
1510372675.7,286046995.6,N
1510372695.5,286046997.7,N
1510372715.4,286046995.5,N
1510372735.2,286046992.4,N
1510372755.0,286046990.6,N
1510372755.9,286046990.6,N
1510372775.8,286046993.8,N
1510372795.6,286046994.5,N
